Location: Peach Mountain Observatory
(42.3967°N, 83.9367°W)
Time: 00:18:34
(UTC-04:00)

deb Explorer IX - Pass Details

Date: 20 January 2020
Orbit: 547 x 1100 km, 38.8° (Epoch: 04 April)

Event Time Altitude Azimuth Distance (km) Brightness Sun altitude
Rises 23:00:00 0° 216° (SW) 3,837 - -58.3°
Reaches altitude 10° 23:03:03 10° 206° (SSW) 2,921 - -58.7°
Maximum altitude 23:09:06 29° 150° (SSE) 1,879 - -59.6°
Drops below altitude 10° 23:15:08 10° 93° (E) 2,910 - -60.5°
Sets 23:18:10 0° 83° (E) 3,821 - -60.9°
